Regional Weather Roundup
Issued by NWS New Orleans/Baton Rouge, LA

Home | Current Version | Previous Version | Text Only | Print | Product List | Glossary On
Versions: 1 2 3 4 5 6 7 8 9 10 11 12 13 14 15 16 17 18 19 20 21 22 23 24 25 26 27
000
ASUS44 KLIX 231014
RWRLIX
NEW ORLEANS REGIONAL WEATHER ROUNDUP
NATIONAL WEATHER SERVICE NEW ORLEANS LA
500 AM CDT FRI JUN 23 2017

NOTE: "FAIR" INDICATES FEW OR NO CLOUDS BELOW 12,000 FEET WITH NO
      SIGNIFICANT WEATHER AND/OR OBSTRUCTIONS TO VISIBILITY.
      SKY/WX - SKY CONDITION AND SIGNIFICANT WEATHER.
      TMP - AIR TEMPERATURE.     DP    - DEWPOINT TEMPERATURE.
      RH  - RELATIVE HUMIDITY.   PRES  - PRESSURE.
      HI  - HEAT INDEX.          WCI   - WIND CHILL INDEX.

*  THESE STATIONS ARE NOT NWS OR FAA STATIONS AND ARE NOT UNDER
   NWS QUALITY CONTROL.

LAZ038-040-048-061>063-065>067-069-231100-
SOUTHEAST LOUISIANA

CITY           SKY/WX    TMP DP  RH WIND       PRES   REMARKS
N.O. INTL ARPT MOCLDY    80  77  90 S10G22    29.88R
N.O. LAKEFRONT CLOUDY    81  77  88 S17       29.89R
N.O. DOWNTOWN*   N/A     81  76  84 S13G20      N/A
RESERVE*       CLOUDY    81  77  88 S12       29.87R
SLIDELL        CLOUDY    81  76  84 S13       29.88R
BATON ROUGE    CLOUDY    80  76  87 S10       29.85R
BOOTHVILLE     CLOUDY    81  79  94 S14G21    29.91S
BELLE CHASSE   CLOUDY   N/A N/A N/A S15       29.88R
BOGALUSA*      CLOUDY    80  75  85 S12       29.89R
GALLIANO*      CLOUDY    81  74  81 S14G23    29.89S
NEW ROADS*       N/A     79  76  91 S10G16    29.83S
GONZALES*      CLOUDY    80  76  89 S8        29.85S
HAMMOND*       CLOUDY    79  75  89 S9G16     29.87R
HOUMA*         NOT AVBL
PORT FOURCHON* CLOUDY    81  77  89 S14G25    29.89S HAZE

$$

MSZ070-080>082-231100-
SOUTHERN MISSISSIPPI

CITY           SKY/WX    TMP DP  RH WIND       PRES   REMARKS
MCCOMB         CLOUDY    79  75  87 S13G22    29.85S
GULFPORT       CLOUDY    81  78  91 S12G22    29.90R
BILOXI         MOCLDY    80  77  91 S15       29.90S
PASCAGOULA     CLOUDY    80  76  87 S7        29.92R

$$

COASTAL OBSERVATIONS
LAKE AND NEARSHORE STATIONS

STATION/POSITION TIME  TEMP    WIND        PRES    WAVE
                       AIR SEA DIR/SP/G            HT/PER
                 (UTC) (F)     (DEG/KT/KT) (MB)    (FT/S)
PASCAGOULA       0948   80     200/ 12/ 17 1012.9
WAVELAND YACHT   0948          200/ 12/ 18   N/A
GRAND ISLE       0948   81 83  190/ 10/ 18 1012.3
SOUTHWEST PASS   0948   81     180/ 15/ 20   N/A
NEW CANAL        0948   81 81  190/ 12/ 20 1011.8
SHELL BEACH      0948          180/ 12/ 17   N/A

OFFSHORE STATIONS

STATION/POSITION TIME  TEMP    WIND        PRES    WAVE
                       AIR SEA DIR/SP/G            HT/PER
                 (UTC) (F)     (DEG/KT/KT) (MB)    (FT/S)
64 S DAUPHIN ISL 0950   80 80  160/ 16/ 19 1013.5    6/ 8

$$





USA.gov is the U.S. government's official web portal to all federal, state and local government web resources and services.